Location: Hodgeman County Ambulance
(38.0844°N, 99.8949°W)
Time: 23:34:15
(UTC+00:00)

Cosmos 2026 Rocket - Pass Details

Date: 27 October 2020
Orbit: 938 x 1002 km, 82.9° (Epoch: 04 December)

Event Time Altitude Azimuth Distance (km) Brightness Sun altitude
Rises 12:10:59 0° 201° (SSW) 3,700 6.9 -10.4°
Reaches altitude 10° 12:13:35 10° 206° (SSW) 2,759 6.2 -9.9°
Maximum altitude 12:19:43 50° 281° (W) 1,256 4.2 -8.7°
Drops below altitude 10° 12:25:55 10° 356° (N) 2,778 6.2 -7.5°
Sets 12:28:33 0° 2° (N) 3,728 6.9 -7.0°
